Time,TemperatureF,DewpointF,PressureIn,WindDirection,WindDirectionDegrees,WindSpeedMPH,WindSpeedGustMPH,Humidity,HourlyPrecipIn,Conditions,Clouds,dailyrainin,SoftwareType,DateUTC
2013-10-29 00:01:00,19.3,17.1,30.31,SE,126,3.0,7.0,91,0.00,,---,0.00,VWS V13.00,2013-10-29 06:01:00,
2013-10-29 00:06:00,19.3,17.1,30.31,SE,126,4.0,7.0,91,0.00,,---,0.00,VWS V13.00,2013-10-29 06:06:00,
2013-10-29 00:11:00,19.4,17.2,30.31,SE,126,1.0,5.0,91,0.00,,---,0.00,VWS V13.00,2013-10-29 06:11:00,
2013-10-29 00:16:00,19.4,17.2,30.31,SE,126,3.0,5.0,91,0.00,,---,0.00,VWS V13.00,2013-10-29 06:16:00,
2013-10-29 00:21:00,19.4,17.2,30.30,SE,126,3.0,5.0,91,0.00,,---,0.00,VWS V13.00,2013-10-29 06:21:00,
2013-10-29 00:26:00,19.5,17.3,30.30,SE,126,0.0,5.0,91,0.00,,---,0.00,VWS V13.00,2013-10-29 06:26:00,
2013-10-29 00:31:00,19.5,17.3,30.30,SE,126,0.0,5.0,91,0.00,,---,0.00,VWS V13.00,2013-10-29 06:31:00,
2013-10-29 00:36:00,19.4,17.2,30.30,SE,126,4.0,5.0,91,0.00,,---,0.00,VWS V13.00,2013-10-29 06:36:00,
2013-10-29 00:41:00,19.4,17.2,30.30,SE,130,4.0,7.0,91,0.00,,---,0.00,VWS V13.00,2013-10-29 06:41:00,
2013-10-29 00:46:00,19.5,17.3,30.30,SE,131,3.0,7.0,91,0.00,,---,0.00,VWS V13.00,2013-10-29 06:46:00,
2013-10-29 00:51:00,19.5,17.3,30.29,SE,126,4.0,7.0,91,0.00,,---,0.00,VWS V13.00,2013-10-29 06:51:00,
2013-10-29 00:56:00,19.5,17.3,30.29,ESE,119,3.0,7.0,91,0.00,,---,0.00,VWS V13.00,2013-10-29 06:56:00,
2013-10-29 01:01:00,19.7,17.5,30.29,ESE,118,2.0,7.0,91,0.00,,---,0.00,VWS V13.00,2013-10-29 07:01:00,
2013-10-29 01:06:00,19.7,17.5,30.28,ESE,118,3.0,7.0,91,0.00,,---,0.00,VWS V13.00,2013-10-29 07:06:00,
2013-10-29 01:11:00,19.7,17.5,30.28,ESE,117,2.0,6.0,91,0.00,,---,0.00,VWS V13.00,2013-10-29 07:11:00,
2013-10-29 01:16:00,19.7,17.5,30.28,ESE,113,4.0,6.0,91,0.00,,---,0.00,VWS V13.00,2013-10-29 07:16:00,
2013-10-29 01:21:00,19.7,17.5,30.27,ESE,113,3.0,6.0,91,0.00,,---,0.00,VWS V13.00,2013-10-29 07:21:00,
2013-10-29 01:26:00,19.6,17.4,30.27,ESE,113,2.0,6.0,91,0.00,,---,0.00,VWS V13.00,2013-10-29 07:26:00,
2013-10-29 01:31:00,19.5,17.3,30.27,ESE,113,1.0,6.0,91,0.00,,---,0.00,VWS V13.00,2013-10-29 07:31:00,
2013-10-29 01:36:00,19.4,17.2,30.27,ESE,113,0.0,6.0,91,0.00,,---,0.00,VWS V13.00,2013-10-29 07:36:00,
2013-10-29 01:41:00,19.3,17.1,30.27,ESE,113,0.0,0.0,91,0.00,,---,0.00,VWS V13.00,2013-10-29 07:41:00,
2013-10-29 01:46:00,19.2,17.0,30.27,ESE,113,0.0,0.0,91,0.00,,---,0.00,VWS V13.00,2013-10-29 07:46:00,
2013-10-29 01:51:00,19.1,16.9,30.28,ESE,113,0.0,0.0,91,0.00,,---,0.00,VWS V13.00,2013-10-29 07:51:00,
2013-10-29 01:56:00,19.0,16.8,30.28,ESE,113,0.0,0.0,91,0.00,,---,0.00,VWS V13.00,2013-10-29 07:56:00,
2013-10-29 02:01:00,19.0,16.8,30.28,ESE,113,0.0,0.0,91,0.00,,---,0.00,VWS V13.00,2013-10-29 08:01:00,
2013-10-29 02:06:00,19.0,16.8,30.27,ESE,113,0.0,0.0,91,0.00,,---,0.00,VWS V13.00,2013-10-29 08:06:00,
2013-10-29 02:11:00,19.0,16.8,30.27,ESE,113,0.0,0.0,91,0.00,,---,0.00,VWS V13.00,2013-10-29 08:11:00,
2013-10-29 02:16:00,19.0,16.8,30.27,ESE,113,0.0,0.0,91,0.00,,---,0.00,VWS V13.00,2013-10-29 08:16:00,
2013-10-29 02:21:00,19.0,16.8,30.26,ESE,113,0.0,0.0,91,0.00,,---,0.00,VWS V13.00,2013-10-29 08:21:00,
2013-10-29 02:26:00,19.1,16.9,30.26,ESE,113,0.0,0.0,91,0.00,,---,0.00,VWS V13.00,2013-10-29 08:26:00,
2013-10-29 02:31:00,19.0,16.8,30.26,ESE,113,0.0,0.0,91,0.00,,---,0.00,VWS V13.00,2013-10-29 08:31:00,
2013-10-29 02:36:00,19.0,16.8,30.26,ESE,113,0.0,0.0,91,0.00,,---,0.00,VWS V13.00,2013-10-29 08:36:00,
2013-10-29 02:41:00,19.0,16.8,30.26,ESE,113,0.0,0.0,91,0.00,,---,0.00,VWS V13.00,2013-10-29 08:41:00,
2013-10-29 02:46:00,19.0,16.8,30.26,ESE,113,0.0,0.0,91,0.00,,---,0.00,VWS V13.00,2013-10-29 08:46:00,
2013-10-29 02:51:00,19.0,16.8,30.26,ESE,113,0.0,0.0,91,0.00,,---,0.00,VWS V13.00,2013-10-29 08:51:00,
2013-10-29 02:56:00,19.0,16.8,30.25,ESE,113,0.0,0.0,91,0.00,,---,0.00,VWS V13.00,2013-10-29 08:56:00,
2013-10-29 03:00:00,19.0,16.8,30.25,ESE,113,0.0,0.0,91,0.00,,---,0.00,VWS V13.00,2013-10-29 09:00:00,
2013-10-29 03:05:00,19.1,16.9,30.25,ESE,113,0.0,0.0,91,0.00,,---,0.00,VWS V13.00,2013-10-29 09:05:00,
2013-10-29 03:10:00,19.1,16.9,30.25,ESE,113,0.0,0.0,91,0.00,,---,0.00,VWS V13.00,2013-10-29 09:10:00,
2013-10-29 03:15:00,19.1,16.9,30.25,ESE,113,0.0,0.0,91,0.00,,---,0.00,VWS V13.00,2013-10-29 09:15:00,
2013-10-29 03:20:00,19.2,17.3,30.25,ESE,113,0.0,0.0,92,0.00,,---,0.00,VWS V13.00,2013-10-29 09:20:00,
2013-10-29 03:25:00,19.3,17.1,30.24,ESE,113,3.0,3.0,91,0.00,,---,0.00,VWS V13.00,2013-10-29 09:25:00,
2013-10-29 03:30:00,19.4,17.2,30.24,ESE,113,0.0,3.0,91,0.00,,---,0.00,VWS V13.00,2013-10-29 09:30:00,
2013-10-29 03:35:00,19.5,17.3,30.24,ESE,113,0.0,3.0,91,0.00,,---,0.00,VWS V13.00,2013-10-29 09:35:00,
2013-10-29 03:40:00,19.5,17.3,30.24,ESE,113,3.0,4.0,91,0.00,,---,0.00,VWS V13.00,2013-10-29 09:40:00,
2013-10-29 03:45:00,19.4,17.2,30.24,ESE,113,4.0,5.0,91,0.00,,---,0.00,VWS V13.00,2013-10-29 09:45:00,
2013-10-29 03:50:00,19.4,17.2,30.24,ESE,111,3.0,6.0,91,0.00,,---,0.00,VWS V13.00,2013-10-29 09:50:00,
2013-10-29 03:55:00,19.3,17.1,30.22,ESE,111,3.0,6.0,91,0.00,,---,0.00,VWS V13.00,2013-10-29 09:55:00,
2013-10-29 04:00:00,19.2,17.0,30.22,ESE,110,6.0,7.0,91,0.00,,---,0.00,VWS V13.00,2013-10-29 10:00:00,
2013-10-29 04:05:00,19.1,16.9,30.22,ESE,110,1.0,7.0,91,0.00,,---,0.00,VWS V13.00,2013-10-29 10:05:00,
2013-10-29 04:10:00,19.0,16.8,30.21,ESE,111,3.0,6.0,91,0.00,,---,0.00,VWS V13.00,2013-10-29 10:10:00,
2013-10-29 04:15:00,19.0,16.8,30.21,ESE,111,2.0,6.0,91,0.00,,---,0.00,VWS V13.00,2013-10-29 10:15:00,
2013-10-29 04:20:00,19.0,16.8,30.21,ESE,112,4.0,6.0,91,0.00,,---,0.00,VWS V13.00,2013-10-29 10:20:00,
2013-10-29 04:25:00,19.0,16.8,30.21,SE,126,3.0,7.0,91,0.00,,---,0.00,VWS V13.00,2013-10-29 10:25:00,
2013-10-29 04:30:00,19.0,16.8,30.21,ESE,121,4.0,7.0,91,0.00,,---,0.00,VWS V13.00,2013-10-29 10:30:00,
2013-10-29 04:35:00,19.1,16.9,30.21,ESE,121,2.0,7.0,91,0.00,,---,0.00,VWS V13.00,2013-10-29 10:35:00,
2013-10-29 04:40:00,19.1,16.9,30.20,ESE,121,4.0,5.0,91,0.00,,---,0.00,VWS V13.00,2013-10-29 10:40:00,
2013-10-29 04:45:00,19.2,17.0,30.20,ESE,119,3.0,6.0,91,0.00,,---,0.00,VWS V13.00,2013-10-29 10:45:00,
2013-10-29 04:50:00,19.2,17.0,30.20,ESE,120,2.0,6.0,91,0.00,,---,0.00,VWS V13.00,2013-10-29 10:50:00,
2013-10-29 04:55:00,19.3,17.1,30.22,ESE,119,4.0,6.0,91,0.00,,---,0.00,VWS V13.00,2013-10-29 10:55:00,
2013-10-29 05:00:00,19.3,17.1,30.22,ESE,116,6.0,6.0,91,0.00,,---,0.00,VWS V13.00,2013-10-29 11:00:00,
2013-10-29 05:05:00,19.3,17.4,30.22,ESE,111,3.0,6.0,92,0.00,,---,0.00,VWS V13.00,2013-10-29 11:05:00,
2013-10-29 05:10:00,19.3,17.4,30.22,ESE,111,2.0,4.0,92,0.00,,---,0.00,VWS V13.00,2013-10-29 11:10:00,
2013-10-29 05:15:00,19.3,17.4,30.22,ESE,111,2.0,5.0,92,0.00,,---,0.00,VWS V13.00,2013-10-29 11:15:00,
2013-10-29 05:20:00,19.4,17.5,30.22,ESE,110,5.0,6.0,92,0.00,,---,0.00,VWS V13.00,2013-10-29 11:20:00,
2013-10-29 05:25:00,19.4,17.5,30.22,ESE,107,5.0,6.0,92,0.00,,---,0.00,VWS V13.00,2013-10-29 11:25:00,
2013-10-29 05:30:00,19.4,17.5,30.22,ESE,107,1.0,6.0,92,0.00,,---,0.00,VWS V13.00,2013-10-29 11:30:00,
2013-10-29 05:35:00,19.4,17.5,30.22,ESE,106,4.0,6.0,92,0.00,,---,0.00,VWS V13.00,2013-10-29 11:35:00,
2013-10-29 05:40:00,19.4,17.5,30.22,ESE,107,3.0,3.0,92,0.00,,---,0.00,VWS V13.00,2013-10-29 11:40:00,
2013-10-29 05:45:00,19.4,17.5,30.22,ESE,106,2.0,4.0,92,0.00,,---,0.00,VWS V13.00,2013-10-29 11:45:00,
2013-10-29 05:50:00,19.5,17.6,30.22,ESE,106,0.0,4.0,92,0.00,,---,0.00,VWS V13.00,2013-10-29 11:50:00,
2013-10-29 05:55:00,19.5,17.6,30.22,ESE,107,0.0,4.0,92,0.00,,---,0.00,VWS V13.00,2013-10-29 11:55:00,
2013-10-29 06:00:00,19.5,17.6,30.22,ESE,106,0.0,4.0,92,0.00,,---,0.00,VWS V13.00,2013-10-29 12:00:00,
2013-10-29 06:05:00,19.5,17.6,30.22,ESE,107,0.0,4.0,92,0.00,,---,0.00,VWS V13.00,2013-10-29 12:05:00,
2013-10-29 06:10:00,19.5,17.6,30.22,ESE,107,0.0,0.0,92,0.00,,---,0.00,VWS V13.00,2013-10-29 12:10:00,
2013-10-29 06:15:00,19.5,17.6,30.22,ESE,107,0.0,0.0,92,0.00,,---,0.00,VWS V13.00,2013-10-29 12:15:00,
2013-10-29 06:20:00,19.5,17.6,30.22,ESE,107,0.0,0.0,92,0.00,,---,0.00,VWS V13.00,2013-10-29 12:20:00,
2013-10-29 06:25:00,19.5,17.6,30.22,ESE,106,0.0,0.0,92,0.00,,---,0.00,VWS V13.00,2013-10-29 12:25:00,
2013-10-29 06:30:00,19.5,17.6,30.22,ESE,107,1.0,3.0,92,0.00,,---,0.00,VWS V13.00,2013-10-29 12:30:00,
2013-10-29 06:35:00,19.6,17.7,30.22,ESE,106,0.0,3.0,92,0.00,,---,0.00,VWS V13.00,2013-10-29 12:35:00,
2013-10-29 06:40:00,19.6,17.7,30.21,ESE,107,0.0,0.0,92,0.00,,---,0.00,VWS V13.00,2013-10-29 12:40:00,
2013-10-29 06:45:00,19.5,17.6,30.21,ESE,107,0.0,0.0,92,0.00,,---,0.00,VWS V13.00,2013-10-29 12:45:00,
2013-10-29 06:50:00,19.5,17.6,30.21,ESE,107,0.0,0.0,92,0.00,,---,0.00,VWS V13.00,2013-10-29 12:50:00,
2013-10-29 06:55:00,19.5,17.6,30.21,ESE,107,0.0,0.0,92,0.00,,---,0.00,VWS V13.00,2013-10-29 12:55:00,
2013-10-29 07:00:00,19.5,17.6,30.21,ESE,107,0.0,0.0,92,0.00,,---,0.00,VWS V13.00,2013-10-29 13:00:00,
2013-10-29 07:05:00,19.5,17.6,30.21,ESE,107,0.0,0.0,92,0.00,,---,0.00,VWS V13.00,2013-10-29 13:05:00,
2013-10-29 07:10:00,19.5,17.6,30.19,ESE,107,0.0,0.0,92,0.00,,---,0.00,VWS V13.00,2013-10-29 13:10:00,
2013-10-29 07:15:00,19.5,17.6,30.19,ESE,107,0.0,0.0,92,0.00,,---,0.00,VWS V13.00,2013-10-29 13:15:00,
2013-10-29 07:20:00,19.5,17.6,30.19,ESE,107,0.0,0.0,92,0.00,,---,0.00,VWS V13.00,2013-10-29 13:20:00,
2013-10-29 07:25:00,19.6,17.7,30.19,ESE,107,0.0,0.0,92,0.00,,---,0.00,VWS V13.00,2013-10-29 13:25:00,
2013-10-29 07:30:00,19.7,17.8,30.19,ESE,107,0.0,0.0,92,0.00,,---,0.00,VWS V13.00,2013-10-29 13:30:00,
2013-10-29 07:35:00,19.7,17.8,30.19,ESE,107,0.0,0.0,92,0.00,,---,0.00,VWS V13.00,2013-10-29 13:35:00,
2013-10-29 07:40:00,19.7,17.8,30.19,ESE,107,0.0,0.0,92,0.00,,---,0.00,VWS V13.00,2013-10-29 13:40:00,
2013-10-29 07:45:00,19.7,17.8,30.19,ESE,107,0.0,0.0,92,0.00,,---,0.00,VWS V13.00,2013-10-29 13:45:00,
2013-10-29 07:50:00,19.7,17.8,30.19,ESE,107,0.0,0.0,92,0.00,,---,0.00,VWS V13.00,2013-10-29 13:50:00,
2013-10-29 07:55:00,19.7,17.8,30.18,ESE,107,0.0,0.0,92,0.00,,---,0.00,VWS V13.00,2013-10-29 13:55:00,
2013-10-29 08:00:00,19.7,17.8,30.18,ESE,107,0.0,0.0,92,0.00,,---,0.00,VWS V13.00,2013-10-29 14:00:00,
2013-10-29 08:05:00,19.7,17.8,30.18,ESE,107,0.0,0.0,92,0.00,,---,0.00,VWS V13.00,2013-10-29 14:05:00,
2013-10-29 08:10:00,19.7,17.8,30.19,ESE,107,0.0,0.0,92,0.00,,---,0.00,VWS V13.00,2013-10-29 14:10:00,
2013-10-29 08:15:00,19.7,17.8,30.19,ESE,107,0.0,0.0,92,0.00,,---,0.00,VWS V13.00,2013-10-29 14:15:00,
2013-10-29 08:20:00,19.8,17.9,30.19,ESE,107,0.0,0.0,92,0.00,,---,0.00,VWS V13.00,2013-10-29 14:20:00,
2013-10-29 08:25:00,19.8,17.9,30.19,ESE,107,0.0,0.0,92,0.00,,---,0.00,VWS V13.00,2013-10-29 14:25:00,
2013-10-29 08:30:00,19.9,18.0,30.19,ESE,107,0.0,0.0,92,0.00,,---,0.00,VWS V13.00,2013-10-29 14:30:00,
2013-10-29 08:35:00,20.0,18.0,30.19,ESE,107,0.0,0.0,92,0.00,,---,0.00,VWS V13.00,2013-10-29 14:35:00,
2013-10-29 08:40:00,20.0,18.0,30.19,ESE,107,0.0,0.0,92,0.00,,---,0.00,VWS V13.00,2013-10-29 14:40:00,
2013-10-29 08:45:00,20.1,18.1,30.19,ESE,107,0.0,0.0,92,0.00,,---,0.00,VWS V13.00,2013-10-29 14:45:00,
2013-10-29 08:50:00,20.1,17.9,30.19,ESE,107,0.0,0.0,91,0.00,,---,0.00,VWS V13.00,2013-10-29 14:50:00,
2013-10-29 08:55:00,20.2,18.0,30.19,ESE,107,0.0,0.0,91,0.00,,---,0.00,VWS V13.00,2013-10-29 14:55:00,
2013-10-29 09:00:00,20.3,18.1,30.19,ESE,107,1.0,3.0,91,0.00,,---,0.00,VWS V13.00,2013-10-29 15:00:00,
2013-10-29 09:05:00,20.3,18.1,30.19,ESE,107,1.0,3.0,91,0.00,,---,0.00,VWS V13.00,2013-10-29 15:05:00,
2013-10-29 09:10:00,20.4,18.2,30.19,ESE,107,0.0,1.0,91,0.00,,---,0.00,VWS V13.00,2013-10-29 15:10:00,
2013-10-29 09:15:00,20.5,18.3,30.19,ESE,107,0.0,1.0,91,0.00,,---,0.00,VWS V13.00,2013-10-29 15:15:00,
2013-10-29 09:20:00,20.6,18.4,30.19,ESE,107,0.0,1.0,91,0.00,,---,0.00,VWS V13.00,2013-10-29 15:20:00,
2013-10-29 09:25:00,20.7,18.5,30.18,ESE,107,0.0,1.0,91,0.00,,---,0.00,VWS V13.00,2013-10-29 15:25:00,
2013-10-29 09:30:00,20.7,18.5,30.18,ESE,107,0.0,1.0,91,0.00,,---,0.00,VWS V13.00,2013-10-29 15:30:00,
2013-10-29 09:35:00,20.8,18.6,30.18,ESE,107,2.0,4.0,91,0.00,,---,0.00,VWS V13.00,2013-10-29 15:35:00,
2013-10-29 09:40:00,20.8,18.6,30.18,ESE,107,1.0,5.0,91,0.00,,---,0.00,VWS V13.00,2013-10-29 15:40:00,
2013-10-29 09:45:00,20.9,18.4,30.18,ESE,107,5.0,5.0,90,0.00,,---,0.00,VWS V13.00,2013-10-29 15:45:00,
2013-10-29 09:50:00,21.0,18.5,30.18,ESE,107,3.0,5.0,90,0.00,,---,0.00,VWS V13.00,2013-10-29 15:50:00,
2013-10-29 09:55:00,21.1,18.9,30.17,ESE,107,4.0,5.0,91,0.00,,---,0.00,VWS V13.00,2013-10-29 15:55:00,
2013-10-29 10:00:00,21.2,18.7,30.17,ESE,109,2.0,5.0,90,0.00,,---,0.00,VWS V13.00,2013-10-29 16:00:00,
2013-10-29 10:05:00,21.3,18.8,30.17,ESE,111,2.0,5.0,90,0.00,,---,0.00,VWS V13.00,2013-10-29 16:05:00,
2013-10-29 10:10:00,21.5,19.0,30.16,SE,143,6.0,8.0,90,0.00,,---,0.00,VWS V13.00,2013-10-29 16:10:00,
2013-10-29 10:15:00,21.6,19.1,30.16,SE,131,4.0,8.0,90,0.00,,---,0.00,VWS V13.00,2013-10-29 16:15:00,
2013-10-29 10:20:00,21.7,19.2,30.16,ESE,123,3.0,8.0,90,0.00,,---,0.00,VWS V13.00,2013-10-29 16:20:00,
2013-10-29 10:25:00,21.9,19.4,30.16,ESE,123,0.0,8.0,90,0.00,,---,0.00,VWS V13.00,2013-10-29 16:25:00,
2013-10-29 10:30:00,22.1,19.4,30.16,SE,134,3.0,8.0,89,0.00,,---,0.00,VWS V13.00,2013-10-29 16:30:00,
2013-10-29 10:35:00,22.2,19.7,30.16,SE,136,5.0,8.0,90,0.00,,---,0.00,VWS V13.00,2013-10-29 16:35:00,
2013-10-29 10:40:00,22.4,19.7,30.15,ESE,117,1.0,5.0,89,0.00,,---,0.00,VWS V13.00,2013-10-29 16:40:00,
2013-10-29 10:45:00,22.6,19.9,30.15,East,99,3.0,6.0,89,0.00,,---,0.00,VWS V13.00,2013-10-29 16:45:00,
2013-10-29 10:50:00,22.7,20.0,30.15,ESE,106,5.0,7.0,89,0.00,,---,0.00,VWS V13.00,2013-10-29 16:50:00,
2013-10-29 10:55:00,22.6,19.9,30.13,ESE,113,2.0,7.0,89,0.00,,---,0.00,VWS V13.00,2013-10-29 16:55:00,
2013-10-29 11:00:00,22.8,20.0,30.13,East,94,5.0,7.0,89,0.00,,---,0.00,VWS V13.00,2013-10-29 17:00:00,
2013-10-29 11:05:00,22.8,19.8,30.13,ESE,106,5.0,7.0,88,0.00,,---,0.00,VWS V13.00,2013-10-29 17:05:00,
2013-10-29 11:10:00,22.8,19.8,30.12,ESE,109,5.0,6.0,88,0.00,,---,0.00,VWS V13.00,2013-10-29 17:10:00,
2013-10-29 11:15:00,23.0,20.0,30.12,ESE,121,3.0,6.0,88,0.00,,---,0.00,VWS V13.00,2013-10-29 17:15:00,
2013-10-29 11:20:00,23.1,20.1,30.12,East,99,9.0,9.0,88,0.00,,---,0.00,VWS V13.00,2013-10-29 17:20:00,
2013-10-29 11:25:00,23.1,20.1,30.13,ESE,103,4.0,9.0,88,0.00,,---,0.00,VWS V13.00,2013-10-29 17:25:00,
2013-10-29 11:30:00,23.3,20.3,30.13,SE,125,2.0,11.0,88,0.00,,---,0.00,VWS V13.00,2013-10-29 17:30:00,
2013-10-29 11:35:00,23.6,20.3,30.13,SE,129,5.0,11.0,87,0.00,,---,0.00,VWS V13.00,2013-10-29 17:35:00,
2013-10-29 11:40:00,23.8,20.8,30.12,East,91,3.0,5.0,88,0.00,,---,0.00,VWS V13.00,2013-10-29 17:40:00,
2013-10-29 11:45:00,23.9,20.9,30.12,ESE,119,3.0,6.0,88,0.00,,---,0.00,VWS V13.00,2013-10-29 17:45:00,
2013-10-29 11:50:00,24.1,21.1,30.12,ESE,103,8.0,10.0,88,0.00,,---,0.00,VWS V13.00,2013-10-29 17:50:00,
2013-10-29 11:55:00,24.2,21.2,30.11,ESE,115,14.0,14.0,88,0.00,,---,0.00,VWS V13.00,2013-10-29 17:55:00,
2013-10-29 12:00:00,24.2,21.2,30.11,ESE,103,5.0,14.0,88,0.00,,---,0.00,VWS V13.00,2013-10-29 18:00:00,
2013-10-29 12:05:00,24.5,21.5,30.11,ESE,116,6.0,14.0,88,0.00,,---,0.00,VWS V13.00,2013-10-29 18:05:00,
2013-10-29 12:10:00,24.5,21.5,30.10,East,99,8.0,11.0,88,0.00,,---,0.00,VWS V13.00,2013-10-29 18:10:00,
2013-10-29 12:15:00,24.6,21.6,30.10,ESE,109,5.0,11.0,88,0.00,,---,0.00,VWS V13.00,2013-10-29 18:15:00,
2013-10-29 12:20:00,24.7,21.9,30.10,ESE,102,1.0,11.0,89,0.00,,---,0.00,VWS V13.00,2013-10-29 18:20:00,
2013-10-29 12:25:00,24.9,22.1,30.09,ESE,115,5.0,11.0,89,0.00,,---,0.00,VWS V13.00,2013-10-29 18:25:00,
2013-10-29 12:30:00,25.1,22.3,30.09,ESE,113,10.0,11.0,89,0.00,,---,0.00,VWS V13.00,2013-10-29 18:30:00,
2013-10-29 12:35:00,25.3,22.5,30.09,ESE,121,4.0,11.0,89,0.00,,---,0.00,VWS V13.00,2013-10-29 18:35:00,
2013-10-29 12:40:00,25.4,22.4,30.08,ESE,105,6.0,9.0,88,0.00,,---,0.00,VWS V13.00,2013-10-29 18:40:00,
2013-10-29 12:45:00,25.9,23.1,30.08,ESE,115,2.0,10.0,89,0.00,,---,0.00,VWS V13.00,2013-10-29 18:45:00,
2013-10-29 12:50:00,27.0,23.9,30.08,ESE,112,4.0,10.0,88,0.00,,---,0.00,VWS V13.00,2013-10-29 18:50:00,
2013-10-29 12:55:00,26.9,23.6,30.06,ESE,110,5.0,10.0,87,0.00,,---,0.00,VWS V13.00,2013-10-29 18:55:00,
2013-10-29 13:00:00,26.6,23.0,30.06,ESE,105,2.0,10.0,86,0.00,,---,0.00,VWS V13.00,2013-10-29 19:00:00,
2013-10-29 13:05:00,26.6,23.3,30.06,ESE,117,3.0,10.0,87,0.00,,---,0.00,VWS V13.00,2013-10-29 19:05:00,
2013-10-29 13:10:00,26.4,23.1,30.06,ESE,121,1.0,5.0,87,0.00,,---,0.00,VWS V13.00,2013-10-29 19:10:00,
2013-10-29 13:15:00,26.5,23.4,30.06,ESE,109,1.0,6.0,88,0.00,,---,0.00,VWS V13.00,2013-10-29 19:15:00,
2013-10-29 13:20:00,26.8,23.7,30.06,ESE,102,0.0,6.0,88,0.00,,---,0.00,VWS V13.00,2013-10-29 19:20:00,
2013-10-29 13:25:00,27.5,24.1,30.05,ESE,103,0.0,6.0,87,0.00,,---,0.00,VWS V13.00,2013-10-29 19:25:00,
2013-10-29 13:30:00,27.9,24.5,30.05,ESE,107,0.0,6.0,87,0.00,,---,0.00,VWS V13.00,2013-10-29 19:30:00,
2013-10-29 13:35:00,28.1,24.7,30.05,ESE,106,0.0,6.0,87,0.00,,---,0.00,VWS V13.00,2013-10-29 19:35:00,
2013-10-29 13:40:00,28.1,24.7,30.05,East,96,3.0,5.0,87,0.00,,---,0.00,VWS V13.00,2013-10-29 19:40:00,
2013-10-29 13:45:00,27.5,24.1,30.05,East,94,1.0,5.0,87,0.00,,---,0.00,VWS V13.00,2013-10-29 19:45:00,
2013-10-29 13:50:00,27.5,24.4,30.05,ENE,74,3.0,5.0,88,0.00,,---,0.00,VWS V13.00,2013-10-29 19:50:00,
2013-10-29 13:55:00,27.9,24.8,30.05,ENE,63,0.0,5.0,88,0.00,,---,0.00,VWS V13.00,2013-10-29 19:55:00,
2013-10-29 14:00:00,28.1,24.5,30.05,ENE,65,0.0,5.0,86,0.00,,---,0.00,VWS V13.00,2013-10-29 20:00:00,
2013-10-29 14:05:00,28.4,24.8,30.05,ENE,66,0.0,5.0,86,0.00,,---,0.00,VWS V13.00,2013-10-29 20:05:00,
2013-10-29 14:10:00,28.3,24.7,30.04,ENE,66,0.0,0.0,86,0.00,,---,0.00,VWS V13.00,2013-10-29 20:10:00,
2013-10-29 14:15:00,28.6,25.0,30.04,NNW,340,2.0,5.0,86,0.00,,---,0.00,VWS V13.00,2013-10-29 20:15:00,
2013-10-29 14:20:00,28.7,24.8,30.04,NNW,340,0.0,5.0,85,0.00,,---,0.00,VWS V13.00,2013-10-29 20:20:00,
2013-10-29 14:25:00,28.6,25.0,30.03,NNW,340,2.0,5.0,86,0.00,,---,0.00,VWS V13.00,2013-10-29 20:25:00,
2013-10-29 14:30:00,28.3,24.7,30.03,NNW,340,0.0,5.0,86,0.00,,---,0.00,VWS V13.00,2013-10-29 20:30:00,
2013-10-29 14:35:00,28.1,24.7,30.03,NNW,340,0.0,5.0,87,0.00,,---,0.00,VWS V13.00,2013-10-29 20:35:00,
2013-10-29 14:40:00,28.1,24.7,30.04,NNW,340,0.0,0.0,87,0.00,,---,0.00,VWS V13.00,2013-10-29 20:40:00,
2013-10-29 14:45:00,28.1,24.7,30.04,NNW,340,0.0,0.0,87,0.00,,---,0.00,VWS V13.00,2013-10-29 20:45:00,
2013-10-29 14:50:00,28.1,24.7,30.04,NNW,340,0.0,0.0,87,0.00,,---,0.00,VWS V13.00,2013-10-29 20:50:00,
2013-10-29 14:55:00,28.3,24.9,30.02,NNW,340,0.0,0.0,87,0.00,,---,0.00,VWS V13.00,2013-10-29 20:55:00,
2013-10-29 15:00:00,28.3,24.9,30.02,NNW,340,0.0,0.0,87,0.00,,---,0.00,VWS V13.00,2013-10-29 21:00:00,
2013-10-29 15:05:00,28.4,25.0,30.02,NNW,340,0.0,0.0,87,0.00,,---,0.00,VWS V13.00,2013-10-29 21:05:00,
2013-10-29 15:10:00,28.5,24.9,30.02,NNW,340,0.0,0.0,86,0.00,,---,0.00,VWS V13.00,2013-10-29 21:10:00,
2013-10-29 15:15:00,28.3,24.7,30.02,ENE,63,0.0,0.0,86,0.00,,---,0.00,VWS V13.00,2013-10-29 21:15:00,
2013-10-29 15:20:00,28.0,24.4,30.02,East,82,4.0,5.0,86,0.00,,---,0.00,VWS V13.00,2013-10-29 21:20:00,
2013-10-29 15:25:00,27.9,24.3,30.02,ENE,76,0.0,5.0,86,0.00,,---,0.00,VWS V13.00,2013-10-29 21:25:00,
2013-10-29 15:30:00,27.9,24.3,30.02,ENE,76,0.0,5.0,86,0.00,,---,0.00,VWS V13.00,2013-10-29 21:30:00,
2013-10-29 15:35:00,28.0,24.6,30.02,ENE,76,0.0,5.0,87,0.00,,---,0.00,VWS V13.00,2013-10-29 21:35:00,
2013-10-29 15:40:00,27.9,24.5,30.01,SE,134,1.0,9.0,87,0.00,,---,0.00,VWS V13.00,2013-10-29 21:40:00,
2013-10-29 15:45:00,27.8,24.4,30.01,East,95,4.0,9.0,87,0.00,,---,0.00,VWS V13.00,2013-10-29 21:45:00,
2013-10-29 15:50:00,27.8,24.4,30.01,ENE,75,1.0,9.0,87,0.00,,---,0.00,VWS V13.00,2013-10-29 21:50:00,
2013-10-29 15:55:00,27.9,24.5,30.02,ENE,74,0.0,9.0,87,0.00,,---,0.00,VWS V13.00,2013-10-29 21:55:00,
2013-10-29 16:00:00,28.0,24.6,30.02,SE,141,3.0,9.0,87,0.00,,---,0.00,VWS V13.00,2013-10-29 22:00:00,
2013-10-29 16:05:00,27.9,24.5,30.02,SE,141,0.0,9.0,87,0.00,,---,0.00,VWS V13.00,2013-10-29 22:05:00,
2013-10-29 16:10:00,27.9,24.5,30.02,SE,141,4.0,6.0,87,0.00,,---,0.00,VWS V13.00,2013-10-29 22:10:00,
2013-10-29 16:15:00,28.1,25.0,30.02,ESE,105,0.0,6.0,88,0.00,,---,0.00,VWS V13.00,2013-10-29 22:15:00,
2013-10-29 16:20:00,28.2,25.1,30.02,East,86,1.0,6.0,88,0.00,,---,0.00,VWS V13.00,2013-10-29 22:20:00,
2013-10-29 16:25:00,28.1,24.7,30.02,East,86,0.0,6.0,87,0.00,,---,0.00,VWS V13.00,2013-10-29 22:25:00,
2013-10-29 16:30:00,28.2,25.1,30.02,East,86,0.0,6.0,88,0.00,,---,0.00,VWS V13.00,2013-10-29 22:30:00,
2013-10-29 16:35:00,28.3,25.2,30.02,East,86,0.0,6.0,88,0.00,,---,0.00,VWS V13.00,2013-10-29 22:35:00,
2013-10-29 16:40:00,28.3,24.9,30.01,East,86,0.0,0.0,87,0.00,,---,0.00,VWS V13.00,2013-10-29 22:40:00,
2013-10-29 16:45:00,28.3,24.9,30.01,East,86,0.0,4.0,87,0.00,,---,0.00,VWS V13.00,2013-10-29 22:45:00,
2013-10-29 16:50:00,28.3,25.2,30.01,East,86,0.0,4.0,88,0.00,,---,0.00,VWS V13.00,2013-10-29 22:50:00,
2013-10-29 16:55:00,28.3,25.2,30.00,East,86,0.0,4.0,88,0.00,,---,0.00,VWS V13.00,2013-10-29 22:55:00,
2013-10-29 17:00:00,28.4,25.3,30.00,East,86,0.0,4.0,88,0.00,,---,0.00,VWS V13.00,2013-10-29 23:00:00,
2013-10-29 17:05:00,28.4,25.0,30.00,East,86,0.0,4.0,87,0.00,,---,0.00,VWS V13.00,2013-10-29 23:05:00,
2013-10-29 17:10:00,28.4,25.3,29.99,East,86,2.0,5.0,88,0.00,,---,0.00,VWS V13.00,2013-10-29 23:10:00,
2013-10-29 17:15:00,28.5,25.4,29.99,East,83,3.0,5.0,88,0.00,,---,0.00,VWS V13.00,2013-10-29 23:15:00,
2013-10-29 17:20:00,28.4,25.3,29.99,ESE,113,3.0,6.0,88,0.00,,---,0.00,VWS V13.00,2013-10-29 23:20:00,
2013-10-29 17:25:00,28.1,25.0,29.99,ESE,114,3.0,6.0,88,0.00,,---,0.00,VWS V13.00,2013-10-29 23:25:00,
2013-10-29 17:30:00,27.9,24.8,29.99,ESE,113,1.0,6.0,88,0.00,,---,0.00,VWS V13.00,2013-10-29 23:30:00,
2013-10-29 17:35:00,27.6,24.5,29.99,ESE,113,3.0,6.0,88,0.00,,---,0.00,VWS V13.00,2013-10-29 23:35:00,
2013-10-29 17:40:00,27.5,24.4,29.99,ESE,112,0.0,4.0,88,0.00,,---,0.00,VWS V13.00,2013-10-29 23:40:00,
2013-10-29 17:45:00,27.4,24.6,29.99,ESE,112,0.0,4.0,89,0.00,,---,0.00,VWS V13.00,2013-10-29 23:45:00,
2013-10-29 17:50:00,27.3,24.5,29.99,ESE,111,0.0,4.0,89,0.00,,---,0.00,VWS V13.00,2013-10-29 23:50:00,
2013-10-29 17:54:00,27.1,24.3,30.01,ESE,111,2.0,4.0,89,0.00,,---,0.00,VWS V13.00,2013-10-29 23:54:00,
2013-10-29 17:59:00,27.0,24.2,30.01,ESE,115,3.0,5.0,89,0.00,,---,0.00,VWS V13.00,2013-10-29 23:59:00,
2013-10-29 18:04:00,26.9,24.1,30.01,ESE,116,4.0,5.0,89,0.00,,---,0.00,VWS V13.00,2013-10-30 00:04:00,
2013-10-29 18:09:00,26.6,23.8,30.00,ESE,118,1.0,5.0,89,0.00,,---,0.00,VWS V13.00,2013-10-30 00:09:00,
2013-10-29 18:14:00,26.4,23.6,30.00,ESE,118,0.0,5.0,89,0.00,,---,0.00,VWS V13.00,2013-10-30 00:14:00,
2013-10-29 18:19:00,26.3,23.8,30.00,ESE,118,0.0,5.0,90,0.00,,---,0.00,VWS V13.00,2013-10-30 00:19:00,
2013-10-29 18:24:00,26.2,23.7,30.00,SE,126,6.0,6.0,90,0.00,,---,0.00,VWS V13.00,2013-10-30 00:24:00,
2013-10-29 18:29:00,26.1,23.6,30.00,SE,132,6.0,7.0,90,0.00,,---,0.00,VWS V13.00,2013-10-30 00:29:00,
2013-10-29 18:34:00,26.0,23.5,30.00,SE,135,3.0,7.0,90,0.00,,---,0.00,VWS V13.00,2013-10-30 00:34:00,
2013-10-29 18:39:00,25.8,23.3,30.00,SE,134,0.0,0.0,90,0.00,,---,0.00,VWS V13.00,2013-10-30 00:39:00,
2013-10-29 18:44:00,25.7,23.2,30.00,SE,134,0.0,5.0,90,0.00,,---,0.00,VWS V13.00,2013-10-30 00:44:00,
2013-10-29 18:49:00,25.6,23.3,30.00,SE,133,0.0,5.0,91,0.00,,---,0.00,VWS V13.00,2013-10-30 00:49:00,
2013-10-29 18:54:00,25.6,23.3,30.00,SE,128,4.0,5.0,91,0.00,,---,0.00,VWS V13.00,2013-10-30 00:54:00,
2013-10-29 18:59:00,25.6,23.3,30.00,SE,128,1.0,5.0,91,0.00,,---,0.00,VWS V13.00,2013-10-30 00:59:00,
2013-10-29 19:04:00,25.6,23.3,30.00,SE,128,0.0,5.0,91,0.00,,---,0.00,VWS V13.00,2013-10-30 01:04:00,
2013-10-29 19:09:00,25.6,23.3,30.00,SE,128,0.0,0.0,91,0.00,,---,0.00,VWS V13.00,2013-10-30 01:09:00,
2013-10-29 19:14:00,25.5,23.2,30.00,SE,128,0.0,0.0,91,0.00,,---,0.00,VWS V13.00,2013-10-30 01:14:00,
2013-10-29 19:19:00,25.4,23.4,30.00,SE,128,0.0,0.0,92,0.00,,---,0.00,VWS V13.00,2013-10-30 01:19:00,
2013-10-29 19:24:00,25.4,23.4,30.00,SE,128,0.0,0.0,92,0.00,,---,0.00,VWS V13.00,2013-10-30 01:24:00,
2013-10-29 19:29:00,25.3,23.3,30.00,SE,128,0.0,0.0,92,0.00,,---,0.00,VWS V13.00,2013-10-30 01:29:00,
2013-10-29 19:34:00,25.2,23.2,30.00,SE,128,0.0,0.0,92,0.00,,---,0.00,VWS V13.00,2013-10-30 01:34:00,
2013-10-29 19:39:00,25.1,23.1,30.01,SE,128,0.0,0.0,92,0.00,,---,0.00,VWS V13.00,2013-10-30 01:39:00,
2013-10-29 19:44:00,25.0,23.0,30.01,SE,128,0.0,0.0,92,0.00,,---,0.00,VWS V13.00,2013-10-30 01:44:00,
2013-10-29 19:49:00,25.0,23.0,30.01,SE,128,0.0,0.0,92,0.00,,---,0.00,VWS V13.00,2013-10-30 01:49:00,
2013-10-29 19:54:00,24.9,22.9,30.01,SE,128,0.0,0.0,92,0.00,,---,0.00,VWS V13.00,2013-10-30 01:54:00,
2013-10-29 19:59:00,24.9,22.9,30.01,SE,128,0.0,0.0,92,0.00,,---,0.00,VWS V13.00,2013-10-30 01:59:00,
2013-10-29 20:04:00,24.8,22.8,30.01,SE,128,0.0,0.0,92,0.00,,---,0.00,VWS V13.00,2013-10-30 02:04:00,
2013-10-29 20:09:00,24.7,22.7,30.00,SE,128,0.0,0.0,92,0.00,,---,0.00,VWS V13.00,2013-10-30 02:09:00,
2013-10-29 20:14:00,24.7,23.0,30.00,SE,128,0.0,0.0,93,0.00,,---,0.00,VWS V13.00,2013-10-30 02:14:00,
2013-10-29 20:19:00,24.7,23.0,30.00,SE,128,1.0,4.0,93,0.00,,---,0.00,VWS V13.00,2013-10-30 02:19:00,
2013-10-29 20:24:00,24.6,22.6,29.99,SE,128,0.0,4.0,92,0.00,,---,0.00,VWS V13.00,2013-10-30 02:24:00,
2013-10-29 20:29:00,24.5,22.5,29.99,SE,128,0.0,4.0,92,0.00,,---,0.00,VWS V13.00,2013-10-30 02:29:00,
2013-10-29 20:34:00,24.3,22.3,29.99,SE,128,0.0,4.0,92,0.00,,---,0.00,VWS V13.00,2013-10-30 02:34:00,
2013-10-29 20:39:00,24.0,22.0,29.99,SE,128,0.0,0.0,92,0.00,,---,0.00,VWS V13.00,2013-10-30 02:39:00,
2013-10-29 20:44:00,23.8,21.8,29.99,SE,128,0.0,0.0,92,0.00,,---,0.00,VWS V13.00,2013-10-30 02:44:00,
2013-10-29 20:49:00,23.7,22.0,29.99,SE,128,0.0,0.0,93,0.00,,---,0.00,VWS V13.00,2013-10-30 02:49:00,
2013-10-29 20:54:00,23.6,21.6,29.99,SE,128,0.0,0.0,92,0.00,,---,0.00,VWS V13.00,2013-10-30 02:54:00,
2013-10-29 20:59:00,23.5,21.8,29.99,SE,128,0.0,0.0,93,0.00,,---,0.00,VWS V13.00,2013-10-30 02:59:00,
2013-10-29 21:04:00,23.6,21.9,29.99,SE,128,0.0,0.0,93,0.00,,---,0.00,VWS V13.00,2013-10-30 03:04:00,
2013-10-29 21:09:00,23.5,21.8,29.98,SE,128,0.0,0.0,93,0.00,,---,0.00,VWS V13.00,2013-10-30 03:09:00,
2013-10-29 21:14:00,23.5,21.8,29.98,SE,128,0.0,0.0,93,0.00,,---,0.00,VWS V13.00,2013-10-30 03:14:00,
2013-10-29 21:19:00,23.5,21.8,29.98,SE,128,0.0,0.0,93,0.00,,---,0.00,VWS V13.00,2013-10-30 03:19:00,
2013-10-29 21:24:00,23.4,21.7,29.98,SE,128,0.0,0.0,93,0.00,,---,0.00,VWS V13.00,2013-10-30 03:24:00,
2013-10-29 21:29:00,23.5,21.8,29.98,SE,128,0.0,0.0,93,0.00,,---,0.00,VWS V13.00,2013-10-30 03:29:00,
2013-10-29 21:34:00,23.4,21.7,29.98,SE,128,0.0,0.0,93,0.00,,---,0.00,VWS V13.00,2013-10-30 03:34:00,
2013-10-29 21:39:00,23.4,21.7,29.98,SE,128,0.0,0.0,93,0.00,,---,0.00,VWS V13.00,2013-10-30 03:39:00,
2013-10-29 21:44:00,23.4,21.7,29.98,SE,128,0.0,0.0,93,0.00,,---,0.00,VWS V13.00,2013-10-30 03:44:00,
2013-10-29 21:49:00,23.4,21.7,29.98,SE,128,2.0,3.0,93,0.00,,---,0.00,VWS V13.00,2013-10-30 03:49:00,
2013-10-29 21:54:00,23.4,21.9,29.98,SE,128,1.0,3.0,94,0.00,,---,0.00,VWS V13.00,2013-10-30 03:54:00,
2013-10-29 21:59:00,23.4,21.9,29.98,SE,128,2.0,3.0,94,0.00,,---,0.00,VWS V13.00,2013-10-30 03:59:00,
2013-10-29 22:01:00,23.5,22.0,29.98,SE,128,3.0,3.0,94,0.00,,---,0.00,VWS V13.00,2013-10-30 04:01:00,
2013-10-29 22:02:00,23.5,22.0,29.98,SE,128,3.0,5.0,94,0.00,,---,0.00,VWS V13.00,2013-10-30 04:02:00,
2013-10-29 22:07:00,23.4,21.9,29.98,SE,129,5.0,7.0,94,0.01,,---,0.01,VWS V13.00,2013-10-30 04:07:00,
2013-10-29 22:12:00,23.1,21.4,29.98,SE,130,6.0,7.0,93,0.01,,---,0.01,VWS V13.00,2013-10-30 04:12:00,
2013-10-29 22:17:00,22.7,21.2,29.98,SE,129,5.0,7.0,94,0.01,,---,0.01,VWS V13.00,2013-10-30 04:17:00,
2013-10-29 22:22:00,22.5,20.8,29.98,SE,129,5.0,7.0,93,0.01,,---,0.01,VWS V13.00,2013-10-30 04:22:00,
2013-10-29 22:27:00,22.4,20.7,29.98,SE,125,4.0,7.0,93,0.01,,---,0.01,VWS V13.00,2013-10-30 04:27:00,
2013-10-29 22:32:00,22.3,20.8,29.98,SE,124,5.0,7.0,94,0.01,,---,0.01,VWS V13.00,2013-10-30 04:32:00,
2013-10-29 22:37:00,22.2,20.7,29.98,SE,125,6.0,6.0,94,0.01,,---,0.01,VWS V13.00,2013-10-30 04:37:00,
2013-10-29 22:42:00,22.0,20.3,29.98,SE,125,6.0,6.0,93,0.01,,---,0.01,VWS V13.00,2013-10-30 04:42:00,
2013-10-29 22:47:00,21.9,20.4,29.98,SE,126,5.0,6.0,94,0.01,,---,0.01,VWS V13.00,2013-10-30 04:47:00,
2013-10-29 22:52:00,21.8,20.3,29.97,SE,126,5.0,6.0,94,0.01,,---,0.01,VWS V13.00,2013-10-30 04:52:00,
2013-10-29 22:57:00,21.8,20.3,29.97,SE,131,5.0,8.0,94,0.01,,---,0.01,VWS V13.00,2013-10-30 04:57:00,
2013-10-29 23:02:00,21.6,19.9,29.97,SE,130,5.0,8.0,93,0.01,,---,0.01,VWS V13.00,2013-10-30 05:02:00,
2013-10-29 23:07:00,21.3,19.6,29.97,SE,132,7.0,7.0,93,0.01,,---,0.01,VWS V13.00,2013-10-30 05:07:00,
2013-10-29 23:12:00,21.3,19.9,29.97,SE,133,4.0,9.0,94,0.00,,---,0.01,VWS V13.00,2013-10-30 05:12:00,
2013-10-29 23:17:00,21.2,19.8,29.97,SE,133,3.0,9.0,94,0.00,,---,0.01,VWS V13.00,2013-10-30 05:17:00,
2013-10-29 23:22:00,21.2,19.8,29.96,SE,133,6.0,9.0,94,0.00,,---,0.01,VWS V13.00,2013-10-30 05:22:00,
2013-10-29 23:27:00,21.3,19.9,29.96,SE,132,5.0,9.0,94,0.00,,---,0.01,VWS V13.00,2013-10-30 05:27:00,
2013-10-29 23:32:00,21.2,19.5,29.96,SE,132,3.0,9.0,93,0.00,,---,0.01,VWS V13.00,2013-10-30 05:32:00,
2013-10-29 23:37:00,21.0,19.3,29.96,SE,132,4.0,9.0,93,0.00,,---,0.01,VWS V13.00,2013-10-30 05:37:00,
2013-10-29 23:42:00,20.8,19.1,29.96,SE,132,3.0,5.0,93,0.00,,---,0.00,VWS V13.00,2013-10-30 05:42:00,
2013-10-29 23:47:00,20.8,19.1,29.96,SE,132,5.0,6.0,93,0.00,,---,0.00,VWS V13.00,2013-10-30 05:47:00,
2013-10-29 23:52:00,20.8,19.1,29.94,SE,132,5.0,8.0,93,0.00,,---,0.00,VWS V13.00,2013-10-30 05:52:00,
2013-10-29 23:57:00,20.6,18.9,29.94,SE,132,3.0,8.0,93,0.00,,---,0.00,VWS V13.00,2013-10-30 05:57:00,